| time (UTC) | temp C | wind direction | speed KPH | gust KPH | rain 1hr cm | rain 24hr cm | rain mn cm | humidity % | barometer mb |
| 20260508054422 | 15 | 157 | 4.8 | 11.3 | 0.00 | 0.00 | 0.00 | 90 | 1015.9 |
| 20260508053918 | 15 | 178 | 6.4 | 12.9 | 0.00 | 0.00 | 0.00 | 90 | 1015.5 |
| 20260508053415 | 15 | 123 | 4.8 | 6.4 | 0.00 | 0.00 | 0.00 | 90 | 1015.8 |
| 20260508052913 | 15 | 168 | 3.2 | 6.4 | 0.00 | 0.00 | 0.00 | 90 | 1015.9 |
| 20260508052410 | 15 | 150 | 6.4 | 11.3 | 0.00 | 0.00 | 0.00 | 89 | 1015.8 |
| 20260508051906 | 15 | 174 | 3.2 | 4.8 | 0.00 | 0.00 | 0.00 | 89 | 1015.9 |
| 20260508051402 | 15 | 119 | 6.4 | 6.4 | 0.00 | 0.00 | 0.00 | 89 | 1015.8 |
| 20260508050858 | 15 | 129 | 3.2 | 6.4 | 0.00 | 0.00 | 0.00 | 89 | 1015.8 |
| 20260508050355 | 15 | 108 | 6.4 | 9.7 | 0.00 | 0.00 | 0.00 | 89 | 1015.7 |
| 20260508045851 | 15 | 122 | 4.8 | 9.7 | 0.00 | 0.00 | 0.00 | 89 | 1015.9 |
| 20260508045349 | 15 | 96 | 1.6 | 4.8 | 0.00 | 0.00 | 0.00 | 89 | 1015.8 |
| 20260508044847 | 15 | 164 | 3.2 | 4.8 | 0.00 | 0.00 | 0.00 | 89 | 1015.8 |
| 20260508044343 | 15 | 105 | 1.6 | 4.8 | 0.00 | 0.00 | 0.00 | 89 | 1015.8 |
| 20260508043839 | 15 | 107 | 0.0 | 1.6 | 0.00 | 0.00 | 0.00 | 89 | 1015.7 |
| 20260508043337 | 15 | 50 | 1.6 | 3.2 | 0.00 | 0.00 | 0.00 | 89 | 1015.6 |
| 20260508042833 | 15 | 180 | 3.2 | 4.8 | 0.00 | 0.00 | 0.00 | 89 | 1015.5 |
| 20260508042331 | 15 | 184 | 3.2 | 4.8 | 0.00 | 0.00 | 0.00 | 89 | 1015.7 |
| 20260508041827 | 15 | 167 | 3.2 | 3.2 | 0.00 | 0.00 | 0.00 | 89 | 1015.6 |
| 20260508041324 | 15 | 161 | 4.8 | 4.8 | 0.00 | 0.00 | 0.00 | 89 | 1015.5 |
| 20260508040820 | 15 | 174 | 3.2 | 3.2 | 0.00 | 0.00 | 0.00 | 89 | 1015.2 |
| 20260508040318 | 15 | 158 | 6.4 | 11.3 | 0.00 | 0.00 | 0.00 | 89 | 1015.2 |
| 20260508035815 | 15 | 129 | 1.6 | 9.7 | 0.00 | 0.00 | 0.00 | 89 | 1015.2 |
| 20260508035312 | 15 | 163 | 3.2 | 4.8 | 0.00 | 0.00 | 0.00 | 89 | 1015.1 |
| 20260508034809 | 15 | 192 | 3.2 | 11.3 | 0.00 | 0.00 | 0.00 | 89 | 1015.0 |
| 20260508034306 | 15 | 196 | 6.4 | 9.7 | 0.00 | 0.00 | 0.00 | 89 | 1015.1 |
| 20260508033803 | 15 | 164 | 4.8 | 6.4 | 0.00 | 0.00 | 0.00 | 89 | 1015.1 |
| 20260508033301 | 15 | 181 | 3.2 | 6.4 | 0.00 | 0.00 | 0.00 | 89 | 1014.9 |
| 20260508032758 | 15 | 186 | 4.8 | 6.4 | 0.00 | 0.00 | 0.00 | 89 | 1014.9 |
| 20260508032255 | 15 | 179 | 8.0 | 9.7 | 0.00 | 0.00 | 0.00 | 89 | 1014.7 |
| 20260508031752 | 15 | 181 | 4.8 | 6.4 | 0.00 | 0.00 | 0.00 | 89 | 1014.6 |
| 20260508031248 | 15 | 137 | 6.4 | 9.7 | 0.00 | 0.00 | 0.00 | 89 | 1014.6 |
| 20260508030745 | 15 | 188 | 4.8 | 9.7 | 0.00 | 0.00 | 0.00 | 88 | 1014.7 |
| 20260508030242 | 15 | 171 | 6.4 | 6.4 | 0.00 | 0.00 | 0.00 | 88 | 1014.6 |
| 20260508025739 | 15 | 165 | 8.0 | 9.7 | 0.00 | 0.00 | 0.00 | 88 | 1014.2 |
| 20260508025236 | 15 | 175 | 6.4 | 9.7 | 0.00 | 0.00 | 0.00 | 88 | 1014.4 |
| 20260508024732 | 15 | 172 | 6.4 | 9.7 | 0.00 | 0.00 | 0.00 | 87 | 1014.3 |
| 20260508024229 | 15 | 190 | 4.8 | 6.4 | 0.00 | 0.00 | 0.00 | 87 | 1014.3 |
| 20260508023725 | 15 | 180 | 4.8 | 9.7 | 0.00 | 0.00 | 0.00 | 87 | 1014.1 |
| 20260508023223 | 15 | 185 | 4.8 | 11.3 | 0.00 | 0.00 | 0.00 | 86 | 1014.1 |
| 20260508022719 | 15 | 168 | 6.4 | 11.3 | 0.00 | 0.00 | 0.00 | 86 | 1014.1 |
| 20260508022216 | 16 | 172 | 6.4 | 9.7 | 0.00 | 0.00 | 0.00 | 86 | 1013.9 |
| 20260508021712 | 16 | 188 | 6.4 | 9.7 | 0.00 | 0.00 | 0.00 | 85 | 1014.0 |
| 20260508021208 | 16 | 167 | 8.0 | 11.3 | 0.00 | 0.00 | 0.00 | 85 | 1014.0 |
| 20260508020706 | 16 | 181 | 4.8 | 9.7 | 0.00 | 0.00 | 0.00 | 84 | 1014.0 |
| 20260508020203 | 16 | 174 | 6.4 | 11.3 | 0.00 | 0.00 | 0.00 | 84 | 1014.0 |
| 20260508015700 | 16 | 185 | 8.0 | 11.3 | 0.00 | 0.00 | 0.00 | 83 | 1013.8 |
| 20260508015157 | 16 | 195 | 6.4 | 9.7 | 0.00 | 0.00 | 0.00 | 83 | 1014.0 |
| 20260508014653 | 16 | 144 | 8.0 | 11.3 | 0.00 | 0.00 | 0.00 | 83 | 1013.8 |
| 20260508014149 | 16 | 205 | 6.4 | 11.3 | 0.00 | 0.00 | 0.00 | 82 | 1013.8 |
| 20260508013646 | 16 | 176 | 8.0 | 9.7 | 0.00 | 0.00 | 0.00 | 82 | 1013.9 |
| 20260508013142 | 17 | 182 | 11.3 | 12.9 | 0.00 | 0.00 | 0.00 | 81 | 1013.8 |
| 20260508012640 | 17 | 175 | 9.7 | 12.9 | 0.00 | 0.00 | 0.00 | 80 | 1013.9 |
| 20260508012137 | 17 | 196 | 6.4 | 9.7 | 0.00 | 0.00 | 0.00 | 80 | 1013.8 |
| 20260508011636 | 17 | 147 | 6.4 | 11.3 | 0.00 | 0.00 | 0.00 | 79 | 1013.9 |
| 20260508011133 | 17 | 153 | 11.3 | 14.5 | 0.00 | 0.00 | 0.00 | 79 | 1013.8 |
| 20260508010629 | 17 | 155 | 4.8 | 14.5 | 0.00 | 0.00 | 0.00 | 79 | 1013.9 |
| 20260508010127 | 17 | 166 | 9.7 | 11.3 | 0.00 | 0.00 | 0.00 | 79 | 1013.8 |
| 20260508005624 | 17 | 185 | 9.7 | 16.1 | 0.00 | 0.00 | 0.00 | 77 | 1013.8 |
| 20260508005120 | 18 | 176 | 8.0 | 11.3 | 0.00 | 0.00 | 0.00 | 76 | 1013.9 |
| 20260508004616 | 18 | 176 | 8.0 | 12.9 | 0.00 | 0.00 | 0.00 | 76 | 1013.9 |
| 20260508004113 | 18 | 193 | 6.4 | 12.9 | 0.00 | 0.00 | 0.00 | 75 | 1013.7 |
| 20260508003609 | 18 | 197 | 6.4 | 6.4 | 0.00 | 0.00 | 0.00 | 73 | 1013.7 |
| 20260508003107 | 18 | 181 | 1.6 | 6.4 | 0.00 | 0.00 | 0.00 | 73 | 1013.8 |
| 20260508002603 | 19 | 173 | 4.8 | 11.3 | 0.00 | 0.00 | 0.00 | 71 | 1013.6 |
| 20260508002101 | 20 | 183 | 6.4 | 6.4 | 0.00 | 0.00 | 0.00 | 70 | 1013.8 |
| 20260508001556 | 20 | 352 | 0.0 | 3.2 | 0.00 | 0.00 | 0.00 | 69 | 1013.5 |
| 20260508001053 | 20 | 169 | 1.6 | 3.2 | 0.00 | 0.00 | 0.00 | 69 | 1013.6 |
| 20260508000548 | 20 | 323 | 1.6 | 3.2 | 0.00 | 0.00 | 0.00 | 69 | 1013.6 |
| 20260508000046 | 20 | 32 | 1.6 | 3.2 | 0.00 | 0.00 | 0.00 | 70 | 1013.7 |
| 20260507235543 | 20 | 189 | 3.2 | 4.8 | 0.00 | 0.00 | 0.00 | 69 | 1014.0 |
| 20260507235040 | 20 | 278 | 1.6 | 6.4 | 0.00 | 0.00 | 0.00 | 70 | 1014.0 |
| 20260507234536 | 20 | 82 | 1.6 | 9.7 | 0.00 | 0.00 | 0.00 | 70 | 1013.6 |
| 20260507234033 | 19 | 194 | 3.2 | 9.7 | 0.00 | 0.00 | 0.00 | 71 | 1013.7 |
| 20260507233530 | 20 | 175 | 8.0 | 9.7 | 0.00 | 0.00 | 0.00 | 70 | 1013.8 |
| 20260507233028 | 20 | 172 | 8.0 | 11.3 | 0.00 | 0.00 | 0.00 | 69 | 1013.6 |
| 20260507232524 | 20 | 170 | 3.2 | 6.4 | 0.00 | 0.00 | 0.00 | 69 | 1013.7 |
| 20260507232022 | 20 | 81 | 1.6 | 6.4 | 0.00 | 0.00 | 0.00 | 69 | 1013.8 |
| 20260507231518 | 20 | 283 | 3.2 | 9.7 | 0.00 | 0.00 | 0.00 | 69 | 1013.7 |
| 20260507231015 | 20 | 76 | 1.6 | 4.8 | 0.00 | 0.00 | 0.00 | 70 | 1013.9 |
| 20260507230512 | 20 | 213 | 3.2 | 11.3 | 0.00 | 0.00 | 0.00 | 70 | 1013.8 |
| 20260507230008 | 20 | 196 | 6.4 | 16.1 | 0.00 | 0.00 | 0.00 | 68 | 1013.8 |
| 20260507225503 | 22 | 172 | 8.0 | 9.7 | 0.00 | 0.00 | 0.00 | 64 | 1013.7 |
| 20260507225000 | 21 | 352 | 0.0 | 6.4 | 0.00 | 0.00 | 0.00 | 66 | 1014.0 |
| 20260507224456 | 21 | 185 | 4.8 | 6.4 | 0.00 | 0.00 | 0.00 | 66 | 1014.0 |
| 20260507223953 | 21 | 347 | 3.2 | 4.8 | 0.00 | 0.00 | 0.00 | 67 | 1014.0 |
| 20260507223449 | 21 | 184 | 6.4 | 11.3 | 0.00 | 0.00 | 0.00 | 67 | 1013.8 |
| 20260507222946 | 21 | 271 | 3.2 | 9.7 | 0.00 | 0.00 | 0.00 | 67 | 1013.8 |
| 20260507222443 | 22 | 352 | 1.6 | 16.1 | 0.00 | 0.00 | 0.00 | 65 | 1014.1 |
| 20260507221939 | 22 | 47 | 1.6 | 6.4 | 0.00 | 0.00 | 0.00 | 65 | 1013.9 |
| 20260507221436 | 22 | 307 | 3.2 | 9.7 | 0.00 | 0.00 | 0.00 | 62 | 1014.0 |
| 20260507220932 | 23 | 324 | 1.6 | 3.2 | 0.00 | 0.00 | 0.00 | 60 | 1014.2 |
| 20260507220430 | 23 | 303 | 0.0 | 3.2 | 0.00 | 0.00 | 0.00 | 60 | 1014.3 |
| 20260507215927 | 23 | 12 | 0.0 | 4.8 | 0.00 | 0.00 | 0.00 | 61 | 1014.1 |
| 20260507215423 | 23 | 341 | 1.6 | 3.2 | 0.00 | 0.00 | 0.00 | 62 | 1014.2 |
| 20260507214920 | 22 | 191 | 1.6 | 4.8 | 0.00 | 0.00 | 0.00 | 62 | 1014.3 |
| 20260507214418 | 23 | 148 | 3.2 | 6.4 | 0.00 | 0.00 | 0.00 | 61 | 1014.4 |
| 20260507213913 | 23 | 280 | 1.6 | 4.8 | 0.00 | 0.00 | 0.00 | 62 | 1014.4 |
| 20260507213410 | 22 | 111 | 0.0 | 4.8 | 0.00 | 0.00 | 0.00 | 62 | 1014.6 |
| 20260507212907 | 22 | 206 | 3.2 | 4.8 | 0.00 | 0.00 | 0.00 | 62 | 1014.7 |
| 20260507212403 | 22 | 186 | 6.4 | 9.7 | 0.00 | 0.00 | 0.00 | 61 | 1014.6 |
| 20260507211900 | 22 | 204 | 1.6 | 6.4 | 0.00 | 0.00 | 0.00 | 61 | 1014.5 |
| 20260507211356 | 23 | 189 | 3.2 | 4.8 | 0.00 | 0.00 | 0.00 | 60 | 1014.6 |
| 20260507210853 | 23 | 321 | 1.6 | 4.8 | 0.00 | 0.00 | 0.00 | 60 | 1014.5 |
| 20260507210350 | 23 | 13 | 3.2 | 6.4 | 0.00 | 0.00 | 0.00 | 59 | 1014.6 |
| 20260507205847 | 23 | 356 | 3.2 | 4.8 | 0.00 | 0.00 | 0.00 | 61 | 1014.7 |
| 20260507205344 | 23 | 260 | 1.6 | 6.4 | 0.00 | 0.00 | 0.00 | 60 | 1014.7 |
| 20260507204840 | 24 | 341 | 3.2 | 6.4 | 0.00 | 0.00 | 0.00 | 58 | 1014.7 |
| 20260507204337 | 24 | 236 | 3.2 | 4.8 | 0.00 | 0.00 | 0.00 | 58 | 1014.9 |
| 20260507203835 | 23 | 281 | 1.6 | 4.8 | 0.00 | 0.00 | 0.00 | 60 | 1014.7 |
| 20260507203333 | 23 | 75 | 1.6 | 4.8 | 0.00 | 0.00 | 0.00 | 60 | 1014.6 |
| 20260507202828 | 23 | 300 | 1.6 | 6.4 | 0.00 | 0.00 | 0.00 | 59 | 1014.8 |
| 20260507202325 | 23 | 347 | 1.6 | 4.8 | 0.00 | 0.00 | 0.00 | 58 | 1014.7 |
| 20260507201820 | 23 | 200 | 3.2 | 4.8 | 0.00 | 0.00 | 0.00 | 59 | 1014.6 |
| 20260507201316 | 23 | 154 | 3.2 | 6.4 | 0.00 | 0.00 | 0.00 | 60 | 1014.7 |
| 20260507200813 | 23 | 232 | 3.2 | 11.3 | 0.00 | 0.00 | 0.00 | 59 | 1014.8 |
| 20260507200309 | 23 | 3 | 3.2 | 4.8 | 0.00 | 0.00 | 0.00 | 59 | 1014.8 |
| 20260507195805 | 23 | 76 | 3.2 | 9.7 | 0.00 | 0.00 | 0.00 | 59 | 1014.9 |
| 20260507195305 | 23 | 159 | 3.2 | 6.4 | 0.00 | 0.00 | 0.00 | 60 | 1014.7 |
| 20260507194800 | 23 | 171 | 4.8 | 12.9 | 0.00 | 0.00 | 0.00 | 60 | 1014.9 |
| 20260507194256 | 24 | 182 | 6.4 | 9.7 | 0.00 | 0.00 | 0.00 | 57 | 1015.0 |
| 20260507193752 | 23 | 357 | 3.2 | 6.4 | 0.00 | 0.00 | 0.00 | 58 | 1015.0 |
| 20260507193249 | 23 | 0 | 1.6 | 4.8 | 0.00 | 0.00 | 0.00 | 60 | 1014.9 |
| 20260507192745 | 23 | 343 | 1.6 | 11.3 | 0.00 | 0.00 | 0.00 | 59 | 1014.9 |
| 20260507192242 | 25 | 263 | 4.8 | 9.7 | 0.00 | 0.00 | 0.00 | 57 | 1015.1 |
| 20260507191738 | 24 | 289 | 1.6 | 4.8 | 0.00 | 0.00 | 0.00 | 57 | 1015.3 |
| 20260507191235 | 23 | 50 | 1.6 | 3.2 | 0.00 | 0.00 | 0.00 | 60 | 1015.3 |
| 20260507190732 | 23 | 202 | 1.6 | 3.2 | 0.00 | 0.00 | 0.00 | 60 | 1015.3 |
| 20260507190231 | 23 | 128 | 3.2 | 9.7 | 0.00 | 0.00 | 0.00 | 59 | 1015.3 |
| 20260507185729 | 23 | 322 | 1.6 | 4.8 | 0.00 | 0.00 | 0.00 | 57 | 1015.5 |
| 20260507185225 | 24 | 129 | 3.2 | 3.2 | 0.00 | 0.00 | 0.00 | 58 | 1015.4 |
| 20260507184723 | 23 | 318 | 3.2 | 6.4 | 0.00 | 0.00 | 0.00 | 59 | 1015.5 |
| 20260507184221 | 23 | 47 | 1.6 | 3.2 | 0.00 | 0.00 | 0.00 | 60 | 1015.5 |
| 20260507183717 | 23 | 208 | 1.6 | 4.8 | 0.00 | 0.00 | 0.00 | 60 | 1015.5 |
| 20260507183214 | 23 | 169 | 4.8 | 9.7 | 0.00 | 0.00 | 0.00 | 59 | 1015.6 |
| 20260507182711 | 23 | 124 | 1.6 | 4.8 | 0.00 | 0.00 | 0.00 | 58 | 1015.6 |
| 20260507182206 | 23 | 334 | 1.6 | 4.8 | 0.00 | 0.00 | 0.00 | 59 | 1015.7 |
| 20260507181703 | 23 | 300 | 3.2 | 3.2 | 0.00 | 0.00 | 0.00 | 59 | 1015.7 |
| 20260507181200 | 23 | 19 | 0.0 | 6.4 | 0.00 | 0.00 | 0.00 | 61 | 1015.6 |
| 20260507180656 | 22 | 65 | 3.2 | 11.3 | 0.00 | 0.00 | 0.00 | 62 | 1015.6 |
| 20260507180153 | 22 | 191 | 3.2 | 9.7 | 0.00 | 0.00 | 0.00 | 61 | 1015.7 |
| 20260507175649 | 22 | 73 | 3.2 | 4.8 | 0.00 | 0.00 | 0.00 | 63 | 1015.7 |
| 20260507175146 | 22 | 185 | 6.4 | 6.4 | 0.00 | 0.00 | 0.00 | 63 | 1015.7 |
| 20260507174643 | 22 | 99 | 4.8 | 6.4 | 0.00 | 0.00 | 0.00 | 63 | 1015.9 |
| 20260507174142 | 22 | 144 | 4.8 | 6.4 | 0.00 | 0.00 | 0.00 | 63 | 1015.7 |
| 20260507173638 | 22 | 181 | 3.2 | 9.7 | 0.00 | 0.00 | 0.00 | 64 | 1015.9 |
| 20260507173136 | 21 | 198 | 3.2 | 4.8 | 0.00 | 0.00 | 0.00 | 67 | 1016.0 |
| 20260507172632 | 21 | 129 | 1.6 | 9.7 | 0.00 | 0.00 | 0.00 | 66 | 1015.7 |
| 20260507172129 | 21 | 166 | 4.8 | 4.8 | 0.00 | 0.00 | 0.00 | 68 | 1015.9 |
| 20260507171624 | 20 | 161 | 3.2 | 12.9 | 0.00 | 0.00 | 0.00 | 71 | 1015.8 |
| 20260507171121 | 20 | 179 | 9.7 | 12.9 | 0.00 | 0.00 | 0.00 | 67 | 1015.9 |
| 20260507170618 | 20 | 187 | 8.0 | 9.7 | 0.00 | 0.00 | 0.00 | 69 | 1015.8 |
| 20260507170115 | 20 | 116 | 8.0 | 11.3 | 0.00 | 0.00 | 0.00 | 68 | 1015.9 |
| 20260507165611 | 20 | 127 | 6.4 | 6.4 | 0.00 | 0.00 | 0.00 | 67 | 1015.8 |
| 20260507165107 | 19 | 171 | 9.7 | 12.9 | 0.00 | 0.00 | 0.00 | 69 | 1015.8 |
| 20260507164603 | 20 | 94 | 3.2 | 4.8 | 0.00 | 0.00 | 0.00 | 66 | 1016.1 |
| 20260507164100 | 20 | 159 | 6.4 | 9.7 | 0.00 | 0.00 | 0.00 | 66 | 1015.9 |
| 20260507163558 | 20 | 152 | 4.8 | 6.4 | 0.00 | 0.00 | 0.00 | 66 | 1016.0 |
| 20260507163056 | 20 | 63 | 3.2 | 9.7 | 0.00 | 0.00 | 0.00 | 65 | 1016.0 |
| 20260507162555 | 19 | 175 | 6.4 | 6.4 | 0.00 | 0.00 | 0.00 | 67 | 1016.0 |
| 20260507162053 | 19 | 213 | 3.2 | 9.7 | 0.00 | 0.00 | 0.00 | 67 | 1016.1 |
| 20260507161549 | 19 | 142 | 4.8 | 6.4 | 0.00 | 0.00 | 0.00 | 68 | 1016.1 |
| 20260507161046 | 18 | 149 | 3.2 | 4.8 | 0.00 | 0.00 | 0.00 | 71 | 1016.0 |
| 20260507160542 | 18 | 175 | 4.8 | 9.7 | 0.00 | 0.00 | 0.00 | 70 | 1016.0 |
| 20260507160038 | 18 | 139 | 3.2 | 6.4 | 0.00 | 0.00 | 0.00 | 71 | 1016.1 |
| 20260507155534 | 18 | 133 | 4.8 | 9.7 | 0.00 | 0.00 | 0.00 | 70 | 1016.0 |
| 20260507155031 | 18 | 173 | 3.2 | 9.7 | 0.00 | 0.00 | 0.00 | 70 | 1016.1 |
| 20260507154528 | 17 | 79 | 3.2 | 6.4 | 0.00 | 0.00 | 0.00 | 73 | 1016.2 |
| 20260507154025 | 17 | 106 | 6.4 | 9.7 | 0.00 | 0.00 | 0.00 | 73 | 1016.3 |
| 20260507153522 | 18 | 128 | 3.2 | 6.4 | 0.00 | 0.00 | 0.00 | 71 | 1016.2 |
| 20260507153018 | 18 | 16 | 0.0 | 3.2 | 0.00 | 0.00 | 0.00 | 69 | 1016.3 |
| 20260507152514 | 18 | 10 | 1.6 | 1.6 | 0.00 | 0.00 | 0.00 | 71 | 1016.3 |
| 20260507152011 | 18 | 3 | 1.6 | 1.6 | 0.00 | 0.00 | 0.00 | 73 | 1016.4 |
| 20260507151507 | 17 | 16 | 0.0 | 3.2 | 0.00 | 0.00 | 0.00 | 75 | 1016.3 |
| 20260507151004 | 17 | 64 | 1.6 | 3.2 | 0.00 | 0.00 | 0.00 | 72 | 1016.3 |
| 20260507150501 | 18 | 94 | 3.2 | 4.8 | 0.00 | 0.00 | 0.00 | 69 | 1016.1 |
| 20260507145957 | 17 | 35 | 0.0 | 1.6 | 0.00 | 0.00 | 0.00 | 74 | 1016.1 |
| 20260507145452 | 17 | 330 | 0.0 | 1.6 | 0.00 | 0.00 | 0.00 | 77 | 1016.4 |
| 20260507144950 | 17 | 87 | 1.6 | 3.2 | 0.00 | 0.00 | 0.00 | 77 | 1016.2 |
| 20260507144446 | 17 | 324 | 1.6 | 3.2 | 0.00 | 0.00 | 0.00 | 78 | 1016.2 |
| 20260507143943 | 16 | 37 | 0.0 | 3.2 | 0.00 | 0.00 | 0.00 | 79 | 1016.2 |
| 20260507143441 | 16 | 35 | 0.0 | 1.6 | 0.00 | 0.00 | 0.00 | 79 | 1016.0 |
| 20260507142937 | 15 | 36 | 0.0 | 3.2 | 0.00 | 0.00 | 0.00 | 79 | 1016.0 |
| 20260507142433 | 15 | 83 | 3.2 | 3.2 | 0.00 | 0.00 | 0.00 | 78 | 1016.2 |
| 20260507141931 | 15 | 74 | 1.6 | 3.2 | 0.00 | 0.00 | 0.00 | 79 | 1015.9 |
| 20260507141426 | 15 | 53 | 1.6 | 1.6 | 0.00 | 0.00 | 0.00 | 80 | 1015.8 |
| 20260507140923 | 15 | 98 | 3.2 | 3.2 | 0.00 | 0.00 | 0.00 | 80 | 1015.8 |
| 20260507140420 | 15 | 58 | 1.6 | 3.2 | 0.00 | 0.00 | 0.00 | 80 | 1015.9 |
| 20260507135918 | 15 | 58 | 1.6 | 1.6 | 0.00 | 0.00 | 0.00 | 81 | 1015.6 |
| 20260507135414 | 15 | 50 | 0.0 | 1.6 | 0.00 | 0.00 | 0.00 | 80 | 1015.7 |
| 20260507134912 | 15 | 18 | 0.0 | 0.0 | 0.00 | 0.00 | 0.00 | 83 | 1015.7 |
| 20260507134408 | 15 | 35 | 0.0 | 0.0 | 0.00 | 0.00 | 0.00 | 84 | 1015.6 |
| 20260507133904 | 14 | 41 | 0.0 | 0.0 | 0.00 | 0.00 | 0.00 | 86 | 1015.4 |
| 20260507133400 | 13 | 33 | 0.0 | 0.0 | 0.00 | 0.00 | 0.00 | 87 | 1015.3 |
| 20260507132859 | 13 | 33 | 0.0 | 0.0 | 0.00 | 0.00 | 0.00 | 88 | 1015.5 |
| 20260507132355 | 12 | 41 | 0.0 | 0.0 | 0.00 | 0.00 | 0.00 | 89 | 1015.4 |
| 20260507131852 | 12 | 45 | 0.0 | 1.6 | 0.00 | 0.00 | 0.00 | 89 | 1015.4 |
| 20260507131348 | 12 | 63 | 1.6 | 1.6 | 0.00 | 0.00 | 0.00 | 89 | 1015.4 |
| 20260507130845 | 12 | 57 | 1.6 | 1.6 | 0.00 | 0.00 | 0.00 | 88 | 1015.3 |
| 20260507130342 | 12 | 44 | 0.0 | 0.0 | 0.00 | 0.00 | 0.00 | 88 | 1015.2 |
| 20260507125842 | 12 | 44 | 0.0 | 0.0 | 0.00 | 0.00 | 0.00 | 88 | 1015.2 |
| 20260507125338 | 12 | 43 | 0.0 | 0.0 | 0.00 | 0.00 | 0.00 | 88 | 1015.2 |
| 20260507124836 | 12 | 45 | 0.0 | 1.6 | 0.00 | 0.00 | 0.00 | 89 | 1015.3 |
| 20260507124332 | 12 | 47 | 0.0 | 1.6 | 0.00 | 0.00 | 0.00 | 89 | 1015.1 |
| 20260507123831 | 12 | 51 | 1.6 | 1.6 | 0.00 | 0.00 | 0.00 | 89 | 1015.1 |
| 20260507123328 | 12 | 45 | 0.0 | 1.6 | 0.00 | 0.00 | 0.00 | 89 | 1015.2 |
| 20260507122824 | 12 | 41 | 0.0 | 1.6 | 0.00 | 0.00 | 0.00 | 89 | 1015.2 |
| 20260507122319 | 12 | 41 | 0.0 | 0.0 | 0.00 | 0.00 | 0.00 | 89 | 1015.2 |
| 20260507121815 | 12 | 41 | 0.0 | 0.0 | 0.00 | 0.00 | 0.00 | 89 | 1015.2 |
| 20260507121311 | 12 | 41 | 0.0 | 0.0 | 0.00 | 0.00 | 0.00 | 89 | 1015.2 |
| 20260507120808 | 12 | 41 | 0.0 | 0.0 | 0.00 | 0.00 | 0.00 | 89 | 1015.3 |
| 20260507120304 | 12 | 41 | 0.0 | 0.0 | 0.00 | 0.00 | 0.00 | 89 | 1015.3 |
| 20260507115801 | 12 | 15 | 0.0 | 1.6 | 0.00 | 0.00 | 0.00 | 89 | 1015.2 |
| 20260507115256 | 12 | 20 | 0.0 | 0.0 | 0.00 | 0.00 | 0.00 | 89 | 1015.1 |
| 20260507114752 | 12 | 6 | 1.6 | 1.6 | 0.00 | 0.00 | 0.00 | 89 | 1015.3 |
| 20260507114250 | 12 | 17 | 0.0 | 0.0 | 0.00 | 0.00 | 0.00 | 89 | 1015.1 |
| 20260507113747 | 12 | 13 | 0.0 | 0.0 | 0.00 | 0.00 | 0.00 | 89 | 1015.3 |
| 20260507113244 | 12 | 12 | 1.6 | 1.6 | 0.00 | 0.00 | 0.00 | 89 | 1015.3 |
| 20260507112742 | 12 | 15 | 0.0 | 0.0 | 0.00 | 0.00 | 0.00 | 89 | 1015.3 |
| 20260507112238 | 12 | 15 | 0.0 | 0.0 | 0.00 | 0.00 | 0.00 | 89 | 1015.4 |
| 20260507111736 | 12 | 14 | 0.0 | 0.0 | 0.00 | 0.00 | 0.00 | 89 | 1015.5 |
| 20260507111232 | 12 | 7 | 0.0 | 0.0 | 0.00 | 0.00 | 0.00 | 88 | 1015.5 |
| 20260507110728 | 12 | 334 | 1.6 | 1.6 | 0.00 | 0.00 | 0.00 | 88 | 1015.7 |
| 20260507110225 | 13 | 24 | 0.0 | 0.0 | 0.00 | 0.00 | 0.00 | 87 | 1015.7 |
| 20260507105722 | 13 | 32 | 0.0 | 0.0 | 0.00 | 0.00 | 0.00 | 87 | 1015.6 |
| 20260507105218 | 12 | 54 | 1.6 | 1.6 | 0.00 | 0.00 | 0.00 | 87 | 1015.6 |
| 20260507104716 | 12 | 54 | 1.6 | 1.6 | 0.00 | 0.00 | 0.00 | 87 | 1015.7 |
| 20260507104212 | 13 | 38 | 0.0 | 0.0 | 0.00 | 0.00 | 0.00 | 87 | 1015.6 |
| 20260507103708 | 13 | 39 | 0.0 | 0.0 | 0.00 | 0.00 | 0.00 | 87 | 1015.5 |
| 20260507103204 | 13 | 42 | 0.0 | 3.2 | 0.00 | 0.00 | 0.00 | 86 | 1015.6 |
| 20260507102701 | 12 | 42 | 0.0 | 1.6 | 0.00 | 0.00 | 0.00 | 87 | 1015.8 |
| 20260507102158 | 12 | 24 | 0.0 | 0.0 | 0.00 | 0.00 | 0.00 | 86 | 1015.5 |
| 20260507101653 | 12 | 13 | 0.0 | 0.0 | 0.00 | 0.00 | 0.00 | 86 | 1015.7 |
| 20260507101149 | 12 | 0 | 0.0 | 0.0 | 0.00 | 0.00 | 0.00 | 86 | 1015.6 |
| 20260507100647 | 13 | 30 | 0.0 | 0.0 | 0.00 | 0.00 | 0.00 | 85 | 1015.6 |
| 20260507100145 | 13 | 31 | 0.0 | 1.6 | 0.00 | 0.00 | 0.00 | 85 | 1015.5 |
| 20260507095643 | 13 | 25 | 0.0 | 0.0 | 0.00 | 0.00 | 0.00 | 85 | 1015.8 |
| 20260507095139 | 13 | 28 | 0.0 | 0.0 | 0.00 | 0.00 | 0.00 | 85 | 1015.7 |
| 20260507094635 | 13 | 32 | 0.0 | 0.0 | 0.00 | 0.00 | 0.00 | 85 | 1015.7 |
| 20260507094132 | 13 | 26 | 0.0 | 1.6 | 0.00 | 0.00 | 0.00 | 85 | 1015.8 |
| 20260507093629 | 13 | 15 | 1.6 | 1.6 | 0.00 | 0.00 | 0.00 | 85 | 1015.7 |
| 20260507093128 | 13 | 21 | 0.0 | 0.0 | 0.00 | 0.00 | 0.00 | 85 | 1015.8 |
| 20260507092624 | 13 | 21 | 0.0 | 1.6 | 0.00 | 0.00 | 0.00 | 85 | 1015.9 |
| 20260507092121 | 13 | 36 | 0.0 | 0.0 | 0.00 | 0.00 | 0.00 | 84 | 1015.9 |
| 20260507091618 | 13 | 31 | 0.0 | 0.0 | 0.00 | 0.00 | 0.00 | 85 | 1016.2 |
| 20260507091114 | 13 | 30 | 0.0 | 1.6 | 0.00 | 0.00 | 0.00 | 85 | 1016.2 |
| 20260507090610 | 13 | 21 | 0.0 | 1.6 | 0.00 | 0.00 | 0.00 | 85 | 1016.2 |
| 20260507090107 | 13 | 4 | 0.0 | 1.6 | 0.00 | 0.00 | 0.00 | 85 | 1016.3 |
| 20260507085604 | 13 | 18 | 0.0 | 0.0 | 0.00 | 0.00 | 0.00 | 85 | 1016.3 |
| 20260507085100 | 13 | 43 | 0.0 | 1.6 | 0.00 | 0.00 | 0.00 | 85 | 1016.4 |
| 20260507084557 | 13 | 26 | 0.0 | 0.0 | 0.00 | 0.00 | 0.00 | 85 | 1016.4 |
| 20260507084054 | 13 | 42 | 0.0 | 1.6 | 0.00 | 0.00 | 0.00 | 85 | 1016.5 |
| 20260507083550 | 13 | 3 | 0.0 | 0.0 | 0.00 | 0.00 | 0.00 | 85 | 1016.6 |
| 20260507083048 | 13 | 47 | 0.0 | 1.6 | 0.00 | 0.00 | 0.00 | 84 | 1016.5 |
| 20260507082544 | 13 | 39 | 0.0 | 1.6 | 0.00 | 0.00 | 0.00 | 85 | 1016.4 |
| 20260507082041 | 13 | 24 | 0.0 | 0.0 | 0.00 | 0.00 | 0.00 | 84 | 1016.5 |
| 20260507081536 | 13 | 32 | 0.0 | 0.0 | 0.00 | 0.00 | 0.00 | 84 | 1016.8 |
| 20260507081034 | 13 | 350 | 1.6 | 1.6 | 0.00 | 0.00 | 0.00 | 84 | 1016.6 |
| 20260507080529 | 13 | 6 | 0.0 | 0.0 | 0.00 | 0.00 | 0.00 | 83 | 1016.8 |
| 20260507080026 | 13 | 359 | 0.0 | 1.6 | 0.00 | 0.00 | 0.00 | 83 | 1016.7 |
| 20260507075521 | 14 | 3 | 0.0 | 0.0 | 0.00 | 0.00 | 0.00 | 83 | 1016.7 |
| 20260507075018 | 14 | 345 | 1.6 | 1.6 | 0.00 | 0.00 | 0.00 | 83 | 1016.4 |
| 20260507074514 | 14 | 5 | 0.0 | 0.0 | 0.00 | 0.00 | 0.00 | 82 | 1016.4 |
| 20260507074014 | 14 | 350 | 1.6 | 1.6 | 0.00 | 0.00 | 0.00 | 83 | 1016.7 |
| 20260507073509 | 14 | 0 | 0.0 | 1.6 | 0.00 | 0.00 | 0.00 | 82 | 1016.4 |
| 20260507073006 | 14 | 0 | 0.0 | 0.0 | 0.00 | 0.00 | 0.00 | 82 | 1016.6 |
| 20260507072503 | 14 | 339 | 1.6 | 1.6 | 0.00 | 0.00 | 0.00 | 82 | 1016.6 |
| 20260507072000 | 14 | 1 | 0.0 | 0.0 | 0.00 | 0.00 | 0.00 | 81 | 1016.5 |
| 20260507071457 | 14 | 350 | 1.6 | 1.6 | 0.00 | 0.00 | 0.00 | 81 | 1016.6 |
| 20260507070954 | 14 | 345 | 1.6 | 1.6 | 0.00 | 0.00 | 0.00 | 81 | 1016.6 |
| 20260507070451 | 14 | 341 | 1.6 | 3.2 | 0.00 | 0.00 | 0.00 | 81 | 1016.6 |
| 20260507065948 | 14 | 344 | 1.6 | 3.2 | 0.00 | 0.00 | 0.00 | 80 | 1016.6 |
| 20260507065444 | 15 | 315 | 1.6 | 3.2 | 0.00 | 0.00 | 0.00 | 80 | 1016.9 |
| 20260507064941 | 15 | 315 | 3.2 | 3.2 | 0.00 | 0.00 | 0.00 | 80 | 1016.7 |
| 20260507064440 | 15 | 328 | 3.2 | 3.2 | 0.00 | 0.00 | 0.00 | 80 | 1016.7 |
| 20260507063937 | 15 | 357 | 0.0 | 3.2 | 0.00 | 0.00 | 0.00 | 80 | 1016.7 |
| 20260507063434 | 15 | 312 | 1.6 | 1.6 | 0.00 | 0.00 | 0.00 | 79 | 1016.7 |
| 20260507062931 | 15 | 1 | 0.0 | 1.6 | 0.00 | 0.00 | 0.00 | 80 | 1017.0 |
| 20260507062428 | 15 | 351 | 0.0 | 3.2 | 0.00 | 0.00 | 0.00 | 79 | 1016.9 |
| 20260507061926 | 15 | 359 | 0.0 | 1.6 | 0.00 | 0.00 | 0.00 | 79 | 1016.7 |
| 20260507061424 | 15 | 334 | 1.6 | 1.6 | 0.00 | 0.00 | 0.00 | 78 | 1016.9 |
| 20260507060922 | 15 | 2 | 0.0 | 0.0 | 0.00 | 0.00 | 0.00 | 78 | 1016.8 |
| 20260507060418 | 15 | 349 | 1.6 | 1.6 | 0.00 | 0.00 | 0.00 | 78 | 1016.9 |
| 20260507055915 | 15 | 335 | 1.6 | 3.2 | 0.00 | 0.00 | 0.00 | 78 | 1017.0 |
| 20260507055410 | 15 | 355 | 0.0 | 1.6 | 0.00 | 0.00 | 0.00 | 77 | 1016.7 |
| 20260507054907 | 15 | 344 | 1.6 | 3.2 | 0.00 | 0.00 | 0.00 | 77 | 1016.7 |